When you browse on this site, cookies collect data to enhance your experience and personalize the content and advertising you see.
Visit our Privacy Policy to learn more. By continuing to use the site, you agree to this use of cookies and data.
  • In Netherlands
  • List of Countries
  • For 7 days
  • Water Temperature
  • Satellite Maps
  • Weather Map
  • Weather Widgets
  • user-avatar
    Login

    Hourly Weather Novosadkovskiy

    Today, 23 February, Saturday

    Time Temperature Precipitation Wind Pressure Humidity
    00:00 -5°C° 0.2 mm 4 mps 764 mmHg 78%
    01:00 -6°C° 0.3 mm 5 mps 764 mmHg 80%
    02:00 -6°C° 0.3 mm 5 mps 764 mmHg 82%
    03:00 -7°C° 0 mm 4 mps 765 mmHg 84%
    04:00 -7°C° 0.4 mm 4 mps 765 mmHg 85%
    05:00 -7°C° 0.4 mm 5 mps 765 mmHg 87%
    06:00 -7°C° 0.4 mm 5 mps 765 mmHg 89%
    07:00 -7°C° 0.3 mm 5 mps 766 mmHg 88%
    08:00 -7°C° 0.3 mm 5 mps 766 mmHg 88%
    09:00 -7°C° 0 mm 5 mps 767 mmHg 87%
    10:00 -6°C° 0.4 mm 5 mps 768 mmHg 88%
    11:00 -6°C° 0.4 mm 5 mps 768 mmHg 88%
    12:00 -6°C° 0.4 mm 5 mps 768 mmHg 88%
    13:00 -6°C° 0.7 mm 5 mps 768 mmHg 90%
    14:00 -6°C° 0.7 mm 5 mps 768 mmHg 91%
    15:00 -6°C° 0.7 mm 5 mps 769 mmHg 92%
    16:00 -6°C° 0.5 mm 5 mps 769 mmHg 92%
    17:00 -6°C° 0.5 mm 5 mps 769 mmHg 93%
    18:00 -6°C° 0.5 mm 5 mps 769 mmHg 93%
    19:00 -6°C° 0.2 mm 5 mps 769 mmHg 92%
    20:00 -6°C° 0.2 mm 5 mps 770 mmHg 92%
    21:00 -7°C° 0.2 mm 5 mps 770 mmHg 92%
    22:00 -7°C° 0.1 mm 5 mps 770 mmHg 92%
    23:00 -7°C° 0.1 mm 5 mps 770 mmHg 92%

    Tomorrow, 24 February, Sunday

    Time Temperature Precipitation Wind Pressure Humidity
    00:00 -7°C° 0.1 mm 4 mps 770 mmHg 92%
    01:00 -7°C° 0 mm 4 mps 770 mmHg 91%
    02:00 -7°C° 0 mm 4 mps 771 mmHg 91%
    03:00 -8°C° 0 mm 4 mps 771 mmHg 91%
    04:00 -8°C° 0 mm 4 mps 771 mmHg 91%
    05:00 -8°C° 0 mm 4 mps 771 mmHg 91%
    06:00 -8°C° 0 mm 4 mps 771 mmHg 90%
    07:00 -9°C° 0 mm 4 mps 771 mmHg 90%
    08:00 -9°C° 0 mm 4 mps 771 mmHg 89%
    09:00 -8°C° 0 mm 3 mps 772 mmHg 89%
    10:00 -7°C° 0 mm 3 mps 772 mmHg 87%
    11:00 -6°C° 0 mm 3 mps 772 mmHg 85%
    12:00 -6°C° 0 mm 3 mps 772 mmHg 83%
    13:00 -5°C° 0 mm 3 mps 772 mmHg 81%
    14:00 -5°C° 0 mm 3 mps 772 mmHg 80%
    15:00 -5°C° 0 mm 3 mps 771 mmHg 78%
    16:00 -5°C° 0 mm 2 mps 772 mmHg 80%
    17:00 -6°C° 0 mm 2 mps 772 mmHg 83%
    18:00 -7°C° 0 mm 2 mps 772 mmHg 85%
    19:00 -7°C° 0 mm 2 mps 772 mmHg 86%
    20:00 -7°C° 0 mm 1 mps 772 mmHg 88%
    21:00 -8°C° 0 mm 1 mps 772 mmHg 89%
    22:00 -8°C° 0 mm 1 mps 772 mmHg 90%
    23:00 -8°C° 0 mm 1 mps 772 mmHg 90%

    Day after tomorrow, 25 February, Monday

    Time Temperature Precipitation Wind Pressure Humidity
    00:00 -8°C° 0 mm 1 mps 772 mmHg 90%
    01:00 -10°C° 0 mm 2 mps 772 mmHg 90%
    02:00 -10°C° 0 mm 2 mps 771 mmHg 89%
    03:00 -10°C° 0 mm 2 mps 771 mmHg 89%
    04:00 -10°C° 0 mm 2 mps 771 mmHg 87%
    05:00 -12°C° 0 mm 3 mps 770 mmHg 86%
    06:00 -12°C° 0 mm 3 mps 770 mmHg 85%
    07:00 -10°C° 0 mm 3 mps 770 mmHg 84%
    08:00 -10°C° 0 mm 4 mps 769 mmHg 82%
    09:00 -10°C° 0 mm 5 mps 769 mmHg 81%
    10:00 -7°C° 0 mm 5 mps 769 mmHg 81%
    11:00 -6°C° 0 mm 5 mps 768 mmHg 80%
    12:00 -4°C° 0 mm 6 mps 768 mmHg 80%
    13:00 -4°C° 0 mm 6 mps 767 mmHg 81%
    14:00 -3°C° 0 mm 6 mps 766 mmHg 82%
    15:00 -3°C° 0 mm 6 mps 765 mmHg 83%
    16:00 -3°C° 0 mm 6 mps 765 mmHg 84%
    17:00 -4°C° 0 mm 6 mps 764 mmHg 85%
    18:00 -4°C° 0 mm 6 mps 763 mmHg 86%
    19:00 -4°C° 0.1 mm 6 mps 763 mmHg 87%
    20:00 -4°C° 0.1 mm 7 mps 762 mmHg 87%
    21:00 -4°C° 0.1 mm 7 mps 761 mmHg 88%
    22:00 -4°C° 0.4 mm 7 mps 761 mmHg 89%
    23:00 -4°C° 0.4 mm 7 mps 760 mmHg 90%

    26 February, Tuesday

    Time Temperature Precipitation Wind Pressure Humidity
    00:00 -3°C° 0.4 mm 7 mps 759 mmHg 91%
    01:00 -3°C° 0.3 mm 7 mps 759 mmHg 91%
    02:00 -3°C° 0.3 mm 7 mps 758 mmHg 91%
    03:00 -3°C° 0.3 mm 7 mps 757 mmHg 90%
    04:00 -3°C° 0.1 mm 7 mps 757 mmHg 90%
    05:00 -3°C° 0.1 mm 6 mps 756 mmHg 90%
    06:00 -3°C° 0.1 mm 6 mps 756 mmHg 89%
    07:00 -3°C° 0 mm 6 mps 756 mmHg 89%
    08:00 -3°C° 0 mm 6 mps 755 mmHg 89%
    09:00 -3°C° 0 mm 6 mps 755 mmHg 88%
    10:00 -3°C° 0.1 mm 7 mps 755 mmHg 89%
    11:00 -2°C° 0.1 mm 7 mps 754 mmHg 90%
    12:00 -2°C° 0.1 mm 7 mps 754 mmHg 91%
    13:00 -2°C° 0.1 mm 7 mps 754 mmHg 90%
    14:00 -2°C° 0.1 mm 6 mps 753 mmHg 89%
    15:00 -1°C° 0.1 mm 6 mps 753 mmHg 87%
    16:00 -2°C° 0 mm 6 mps 752 mmHg 88%
    17:00 -1°C° 0 mm 5 mps 752 mmHg 88%
    18:00 -1°C° 0 mm 5 mps 752 mmHg 89%
    19:00 -2°C° 0 mm 5 mps 752 mmHg 90%
    20:00 -2°C° 0 mm 5 mps 752 mmHg 91%
    21:00 -2°C° 0 mm 4 mps 752 mmHg 92%
    22:00 -2°C° 0 mm 4 mps 752 mmHg 93%
    23:00 -3°C° 0 mm 4 mps 752 mmHg 94%

    27 February, Wednesday

    Time Temperature Precipitation Wind Pressure Humidity
    00:00 -2°C° 0 mm 3 mps 752 mmHg 95%
    01:00 -2°C° 0 mm 3 mps 752 mmHg 95%
    02:00 -4°C° 0 mm 3 mps 752 mmHg 95%
    03:00 -4°C° 0 mm 3 mps 752 mmHg 95%
    04:00 -4°C° 0 mm 3 mps 752 mmHg 95%
    05:00 -3°C° 0 mm 2 mps 752 mmHg 95%
    06:00 -3°C° 0 mm 2 mps 752 mmHg 95%
    07:00 -3°C° 0 mm 2 mps 753 mmHg 93%
    08:00 -2°C° 0 mm 2 mps 753 mmHg 92%
    09:00 -2°C° 0 mm 2 mps 753 mmHg 90%
    10:00 -1°C° 0 mm 3 mps 753 mmHg 88%
    11:00 -1°C° 0 mm 3 mps 754 mmHg 86%
    12:00 0°C° 0 mm 3 mps 754 mmHg 85%
    13:00 0°C° 0 mm 3 mps 754 mmHg 83%
    14:00 0°C° 0 mm 4 mps 754 mmHg 82%
    15:00 0°C° 0 mm 4 mps 754 mmHg 81%
    16:00 0°C° 0 mm 3 mps 754 mmHg 83%
    17:00 0°C° 0 mm 3 mps 754 mmHg 85%
    18:00 -1°C° 0 mm 2 mps 754 mmHg 87%
    19:00 -1°C° 0 mm 3 mps 754 mmHg 88%
    20:00 -1°C° 0 mm 3 mps 755 mmHg 89%
    21:00 -2°C° 0 mm 4 mps 755 mmHg 90%
    22:00 -2°C° 0 mm 4 mps 755 mmHg 90%
    23:00 -3°C° 0 mm 4 mps 754 mmHg 90%

    28 February, Thursday

    Time Temperature Precipitation Wind Pressure Humidity
    00:00 -3°C° 0 mm 4 mps 754 mmHg 90%
    01:00 -3°C° 0 mm 4 mps 754 mmHg 89%
    02:00 -3°C° 0 mm 4 mps 754 mmHg 89%
    03:00 -3°C° 0 mm 4 mps 753 mmHg 88%
    04:00 -3°C° 0.1 mm 4 mps 753 mmHg 87%
    05:00 -3°C° 0.1 mm 4 mps 753 mmHg 85%
    06:00 -3°C° 0.1 mm 4 mps 753 mmHg 84%
    07:00 -4°C° 0 mm 5 mps 753 mmHg 80%
    08:00 -4°C° 0 mm 6 mps 753 mmHg 76%
    09:00 -4°C° 0 mm 6 mps 753 mmHg 73%
    10:00 -3°C° 0 mm 7 mps 753 mmHg 73%
    11:00 -3°C° 0 mm 7 mps 752 mmHg 74%
    12:00 -2°C° 0 mm 7 mps 752 mmHg 75%
    13:00 -2°C° 0.1 mm 7 mps 752 mmHg 76%
    14:00 -2°C° 0.1 mm 7 mps 752 mmHg 78%
    15:00 -1°C° 0.1 mm 7 mps 752 mmHg 79%
    16:00 -2°C° 0 mm 6 mps 751 mmHg 82%
    17:00 -1°C° 0 mm 5 mps 751 mmHg 84%
    18:00 -1°C° 0 mm 4 mps 751 mmHg 87%
    19:00 -1°C° 0 mm 4 mps 751 mmHg 88%
    20:00 -1°C° 0 mm 4 mps 751 mmHg 90%
    21:00 -2°C° 0 mm 5 mps 751 mmHg 91%
    22:00 -2°C° 0 mm 5 mps 751 mmHg 92%
    23:00 -2°C° 0 mm 5 mps 750 mmHg 93%
    Show more